Meteo Giornale » Osservazioni meteo Stati Uniti (USA) » Kodiak
ore: 20:53 - Osservazioni Meteo Kodiak
Lat. 57° 45' N Lon. 152° 30' W Alt. 22 metri s.l.m.
12 °C
Sereno
Temp. 24 Ore
11 °C
16 °C
Ovest/Nord-Ovest
14.8 Km/h
Dew point -2 °C
Umidità 37 %
Visibilità 10 Km
Il sole sorge alle ore 07:09
Il sole tramonta alle ore 21:10
| Data e Ora | Cielo e Fenomeni | T °C | DP °C | Um. % | Pres. hPa | Vis. km | Vento km/h | |
|---|---|---|---|---|---|---|---|---|
| Oggi h: 20:53 | Sereno | 12 | -2 | 37 | 1005 | 10 | O/NO 14.8 | |
| Oggi h: 19:53 | Sereno | 13 | -2 | 35 | 1004 | 10 | O/NO 22.2 | |
| Oggi h: 18:53 | Sereno | 14 | -3 | 30 | 1004 | 10 | O/NO 35.2 | |
| Oggi h: 17:53 | Sereno | 15 | -3 | 28 | 1003 | 10 | O/NO 31.5 | |
| Oggi h: 16:53 | Sereno | 15 | -4 | 26 | 1003 | 10 | NO 35.2 | |
| Oggi h: 15:53 | Sereno | 14 | -3 | 30 | 1003 | 10 | O/NO 31.5 | |
| Oggi h: 14:53 | Sereno | 16 | -6 | 21 | 1002 | 10 | O/NO 38.8 | |
| Oggi h: 13:53 | Nuvoloso | 14 | 4 | 50 | 1003 | 10 | O 35.2 | |
| Oggi h: 12:53 | Molto Nuvoloso | 14 | 5 | 54 | 1004 | 10 | O/NO 35.2 | |
| Oggi h: 11:53 | Nuvoloso | 13 | 5 | 58 | 1004 | 10 | O/NO 27.8 | |
| Oggi h: 10:53 | Poco Nuvoloso | 13 | 6 | 62 | 1004 | 10 | O 22.2 | |
| Oggi h: 09:55 | Poco Nuvoloso | 13 | 5 | 58 | 1005 | 10 | O 7.4 | |
| Oggi h: 09:53 | Sereno | 13 | 5 | 58 | 1005 | 10 | O/SO 7.4 | |
| Oggi h: 08:53 | Sereno | 11 | 6 | 71 | 1005 | 10 | N 5.5 | |
| Oggi h: 07:53 | Sereno | 11 | 6 | 71 | 1006 | 10 | N 5.5 | |
| Oggi h: 06:53 | Sereno | 11 | 5 | 66 | 1006 | 10 | N 0 | |
| Oggi h: 05:53 | Sereno | 12 | 4 | 57 | 1007 | 10 | O 24 | |
| Oggi h: 04:53 | Sereno | 12 | 4 | 57 | 1008 | 10 | O/NO 14.8 | |
| Oggi h: 03:53 | Sereno | 12 | 5 | 62 | 1008 | 10 | O/NO 31.5 | |
| Oggi h: 02:53 | Sereno | 11 | 6 | 71 | 1008 | 10 | O/NO 24 | |
| Oggi h: 01:53 | Sereno | 12 | 6 | 66 | 1009 | 10 | O 20.3 | |
| Oggi h: 00:53 | Poco Nuvoloso | 12 | 6 | 66 | 1010 | 10 | NO 13 | |
| Ieri h: 23:53 | Coperto | 12 | 6 | 66 | 1010 | 10 | N 11.1 | |
| Ieri h: 22:53 | Coperto | 13 | 6 | 62 | 1010 | 10 | O/NO 13 | |
| Ieri h: 21:53 | Molto Nuvoloso | 12 | 6 | 66 | 1010 | 10 | NO 13 | |



